Location: Newark
(52.3735°N, 16.9806°E)
Time: 22:18:19
(UTC+00:00)

Envisat - Pass Details

Date: 18 September 2021
Orbit: 764 x 766 km, 98.2° (Epoch: 21 October)

Event Time Altitude Azimuth Distance (km) Brightness Sun altitude
Rises 03:15:28 0° 21° (NNE) 3,246 6.9 -12.2°
Reaches altitude 10° 03:18:05 10° 33° (NNE) 2,314 6.3 -11.8°
Maximum altitude 03:22:29 29° 93° (E) 1,396 5.2 -11.1°
Drops below altitude 10° 03:26:51 10° 152° (SSE) 2,298 5.6 -10.5°
Sets 03:29:26 0° 164° (SSE) 3,219 6.2 -10.1°
